Погода в Глаухау

Германия     50°49′30″N   12°32′18″E
темп.,
°C
ветер,
м/с
пор.,
м/с
влажн.,
%
обл.,
%
осадки,
мм/ч
давл.,
гПа
погр.,
м
20 сентября, пн
пн2023:00+6вюв22895 0.0 101912
02:00+5в11871 0.0 101910
05:00+5вюв118810 0.0 102010
08:00+6юв118272 0.0 102148
11:00+10св236896 0.0 1021424
14:00+12св335698 0.0 10211400
17:00+12св335818 0.0 1021884
20:00+7всв227225 0.0 102311
21 сентября, вт
вт2123:00+7юв117284 0.0 102514
02:00+6юв117540 0.0 102510
05:00+5ю228345 0.0 102611
08:00+6ююз1180100 0.0 102820
11:00+11ссв2261100 0.0 1028393
14:00+14ссв215178 0.0 10271362
17:00+14с2353100 0.0 10271322
20:00+9ссз1170100 0.0 102810
22 сентября, ср
ср2223:00+8з1175100 0.0 102910
02:00+7зюз1180100 0.0 102910
05:00+6юз1183100 0.0 102810
08:00+7юз2282100 0.0 102857
11:00+12зсз2467100 0.0 1028587
14:00+15сз3463100 0.0 10261110
17:00+14сз3465100 0.0 1025936
20:00+10ююз11825 0.0 102510
23 сентября, чт
чт2323:00+9ю22875 0.0 102513
02:00+8ююз32895 0.0 102328
05:00+8ююз33890 0.0 102236
08:00+9ююз36855 0.0 1020124
11:00+16юз57595 0.0 1018525
14:00+19юз79495 0.0 10141035
17:00+18юз6105590 0.0 1012908
20:00+14юз6146699 0.0 1011421
24 сентября, пт
пт2423:00+14юз81664100 0.0 1010624
02:00+14з81373100 0.0 10101360
05:00+10зсз71372100 0.1 1013884
08:00+8з6136473 0.1 1015607
11:00+11з695323 0.0 1015899
14:00+15з683998 0.0 10141270
17:00+16з474586 0.0 10121181
20:00+10юз34605 0.0 101345